Location: Lafig�re
(44.4503°N, 4.0357°E)
Time: 15:20:23
(UTC+00:00)

Vanguard 2 Rocket - Pass Details

Date: 02 February 2021
Orbit: 554 x 3325 km, 32.9° (Epoch: 06 March)

Event Time Altitude Azimuth Distance (km) Brightness Sun altitude
Rises 13:08:55 0° 247° (WSW) 7,310 12.1 26.8°
Reaches altitude 10° 13:14:10 10° 243° (WSW) 6,226 12.0 26.5°
Maximum altitude 13:32:15 52° 175° (S) 3,093 10.7 25.2°
Drops below altitude 10° 13:44:08 10° 104° (ESE) 4,240 10.2 24.3°
Sets 13:46:58 0° 99° (E) 4,917 10.5 24.0°
